Location: Unspecified
(0.0000°N, 0.0000°E)
Time: 16:31:44
(UTC+00:00)

Vanguard 2 - Visible Passes

Search period start: 23 May 2018 00:00
Search period end: 02 June 2018 00:00
Orbit: 552 x 2940 km, 32.9° (Epoch: 22 May)

Date Brightness Start Highest point End Pass type
(mag) Time Alt. Az. Time Alt. Az. Time Alt. Az.
23 May 10.4 18:54:58 10° NW 19:12:11 52° NNE 19:21:33 24° E visible
23 May 9.8 21:08:20 10° WNW 21:22:59 64° WSW 21:22:59 64° WSW visible
24 May 10.1 19:13:01 10° NW 19:30:48 66° NE 19:38:41 33° ESE visible
24 May 10.2 21:27:22 10° WNW 21:40:06 47° WSW 21:40:06 47° WSW visible
25 May 9.9 19:31:13 10° NW 19:49:17 83° NE 19:55:50 41° ESE visible
25 May 10.7 21:46:53 10° W 21:57:16 34° WSW 21:57:16 34° WSW visible
26 May 9.9 19:49:39 10° WNW 20:07:35 80° SW 20:13:01 48° SE visible
26 May 11.0 22:06:58 10° W 22:14:27 24° WSW 22:14:27 24° WSW visible
27 May 10.6 17:55:26 10° NW 18:12:55 59° NE 18:28:06 10° ESE visible
27 May 10.0 20:08:25 10° WNW 20:25:49 63° SW 20:30:11 48° SSE visible
27 May 11.4 22:27:49 10° WSW 22:31:38 16° WSW 22:31:38 16° WSW visible
28 May 10.4 18:13:28 10° NW 18:31:26 74° NE 18:45:57 13° ESE visible
28 May 10.2 20:27:33 10° WNW 20:44:03 49° SW 20:47:23 43° S visible
29 May 9.2 05:30:06 10° S 05:32:42 16° SE 05:35:22 10° ESE visible
29 May 10.3 18:31:42 10° NW 18:49:50 90° SW 19:03:08 17° SE visible
29 May 10.5 20:47:11 10° W 21:02:19 37° SW 21:04:34 36° SSW visible
30 May 10.4 18:50:11 10° WNW 19:08:12 74° SW 19:20:19 20° SE visible
30 May 10.8 21:07:24 10° W 21:20:46 28° SW 21:21:45 28° SSW visible
31 May 10.5 19:09:00 10° WNW 19:26:32 59° SW 19:37:29 22° SSE visible
31 May 11.1 21:28:20 10° WSW 21:38:56 21° SW 21:38:56 21° SW visible
01 Jun 9.3 04:17:47 12° SSE 04:18:27 13° SSE 04:20:20 10° SE visible
01 Jun 10.7 19:28:12 10° WNW 19:44:56 46° SW 19:54:38 23° SSE visible
01 Jun 11.4 21:50:03 10° WSW 21:56:05 15° SW 21:56:05 15° SW visible
